[[{"header":{"parameterUnit":"m.s-1","parameterCategory":1,"la1":30.2991,"la2":30.254,"lo1":-89.0895,"lo2":-89.0444,"dy":0.0017,"dx":0.0017,"nx":28,"ny":28,"refTime":"2023-10-23T09:00:00:Z","depth":0,"parameterNumber":2,"parameterNumberName":"U-component_of_WINDS"},"data":[0,0,0,0,0,0,0,0,0,0,0,0,0,0,0,0,0,0,0,0,0,0,0,0,0,0,0,0,0,0,0,0,0,0,0,0,0,0,0,0,0,0,0,0,0,0,0,0,0,0,0,0,0,0,0,0,0,0,-5.5682,-5.5684,0,-5.5829,-5.5831,-5.5833,-5.5742,-5.5737,-5.5733,-5.5729,-5.5887,-5.5895,-5.5903,0,0,0,0,0,0,0,0,0,0,0,0,0,-5.533,-5.5336,-5.5682,-5.5684,-5.5686,-5.5829,-5.5831,-5.5833,-5.5742,-5.5737,-5.5732,-5.5727,-5.5884,-5.5894,-5.5904,0,0,0,0,0,0,0,0,0,0,0,0,0,-5.5481,-5.5339,-5.5682,-5.5657,-5.5657,-5.5829,-5.5831,-5.5834,-5.5744,-5.5737,-5.5731,-5.5724,-5.5881,-5.5893,-5.5905,-5.6112,0,0,-5.5943,-5.5948,0,0,0,0,0,0,0,0,-5.5472,-5.5494,-5.5659,-5.5659,-5.5659,-5.576,-5.5765,-5.5927,-5.5745,-5.5711,-5.5729,-5.5721,-5.5851,-5.5865,-5.5907,-5.6119,-5.6126,-5.5944,-5.5952,-5.5957,-5.5961,0,0,0,0,0,0,0,-5.5462,-5.5487,-5.574,-5.5662,-5.5662,-5.5642,-5.5656,-5.5795,-5.5816,-5.5713,-5.5707,-5.5725,-5.5849,-5.5896,-5.591,-5.6128,-5.5944,-5.5955,-5.5962,-5.5967,-5.6519,-5.6526,0,0,0,0,0,0,-5.5452,-5.5479,-5.5736,-5.5745,-5.5547,-5.5653,-5.5669,-5.5735,-5.5814,-5.5819,-5.5731,-5.5721,-5.5878,-5.5896,-5.5916,-5.6163,-5.5957,-5.5969,-5.5976,-5.6512,-5.652,-5.6528,0,0,0,0,0,0,-5.5445,-5.5476,-5.573,-5.561,-5.5641,-5.5666,-5.574,-5.5741,-5.5787,-5.5827,-5.5831,-5.5774,-5.5873,-5.5898,-5.6063,-5.6167,-5.5974,-5.5985,-5.6503,-5.6514,-5.6524,-5.6659,0,0,0,0,0,0,-5.5435,-5.5474,-5.555,-5.5612,-5.5648,-5.5873,-5.5747,-5.5748,-5.5807,-5.5796,-5.5868,-5.5874,-5.587,-5.6046,-5.6076,-5.6181,-5.5995,-5.6494,-5.6508,-5.6521,-5.6645,-5.6673,-5.6697,0,0,0,0,0,-5.5423,-5.5584,-5.5555,-5.5586,-5.5744,-5.5879,-5.59,-5.589,-5.5816,-5.5895,-5.5921,-5.5872,-5.6151,-5.6063,-5.6097,-5.6207,-5.6487,-5.6504,-5.652,-5.6634,-5.6668,-5.6696,0,0,0,0,0,0,-5.5535,-5.5591,-5.556,-5.5745,-5.5808,-5.5863,-5.5962,-5.5926,-5.6012,-5.5998,-5.5984,-5.6002,-5.6174,-5.6207,-5.6108,-5.6412,-5.6308,-5.6332,-5.6383,-5.6416,-5.6441,-5.6429,-5.6005,0,0,0,0,0,-5.5581,-5.5684,-5.5729,-5.5888,-5.5921,-5.5937,-5.5995,-5.5982,-5.6048,-5.6075,-5.6113,-5.618,-5.6283,-5.6351,-5.6448,-5.665,-5.6666,-5.6743,-5.6768,-5.6789,-5.681,-5.6921,-5.6956,-5.6582,-5.6582,-5.6581,0,0,-5.5678,-5.5722,-5.5788,-5.5912,-5.5959,-5.6068,-5.596,-5.608,-5.6162,-5.6094,-5.6251,-5.6282,-5.6357,-5.6542,-5.6625,-5.6575,-5.6917,-5.681,-5.6826,-5.6836,-5.6941,-5.6976,-5.7008,-5.6593,-5.6591,-5.6589,0,0,-5.591,-5.5953,-5.609,-5.614,-5.6212,-5.6221,-5.6255,-5.6316,-5.6334,-5.6491,-5.6443,-5.6542,-5.6719,-5.6775,-5.6826,-5.7082,-5.704,-5.7114,-5.7248,-5.7356,-5.7385,-5.7412,-5.7503,-5.7536,-5.7135,-5.7135,-5.7135,0,-5.6022,-5.6182,-5.6166,-5.629,-5.6347,-5.6289,-5.643,-5.6479,-5.6581,-5.6623,-5.6564,-5.6786,-5.6833,-5.703,-5.7092,-5.7136,-5.7175,-5.7105,-5.7382,-5.7408,-5.7432,-5.752,-5.7554,-5.7143,-5.7142,-5.7142,-5.7141,0,-5.6316,-5.6428,-5.6531,-5.6628,-5.6697,-5.6829,-5.6836,-5.6908,-5.689,-5.6907,-5.707,-5.7124,-5.7231,-5.7277,-5.7261,-5.7474,-5.744,-5.7383,-5.7278,-5.7477,-5.7558,-5.7592,-5.7155,-5.7152,-5.715,-5.7148,0,0,-5.6621,-5.6708,-5.6746,-5.679,-5.6866,-5.6954,-5.7085,-5.7188,-5.7251,-5.7324,-5.7434,-5.7587,-5.7534,-5.7593,-5.7583,-5.7678,-5.7878,-5.7609,-5.7611,-5.7657,-5.8117,-5.8159,-5.8198,-5.7852,-5.7858,-5.7863,-5.8111,0,-5.6858,-5.7082,-5.7073,-5.7284,-5.7389,-5.7336,-5.7451,-5.7512,-5.7532,-5.7625,-5.7648,-5.7757,-5.7679,-5.7714,-5.7806,-5.7834,-5.797,-5.7817,-5.7956,-5.7961,-5.7938,-5.824,-5.8285,-5.8516,-5.8142,-5.8148,-5.8152,0,-5.7162,-5.7243,-5.7464,-5.7526,-5.7569,-5.7672,-5.7766,-5.7856,-5.7925,-5.7933,-5.8,-5.7976,-5.8111,-5.8004,-5.8192,-5.8087,-5.8145,-5.8168,-5.8177,-5.8189,-5.8068,-5.8261,-5.8589,-5.8624,-5.8202,-5.8198,-5.8194,0,-5.7363,-5.7528,-5.7681,-5.772,-5.7796,-5.7869,-5.7905,-5.7967,-5.803,-5.8114,-5.8156,-5.8255,-5.831,-5.8389,-5.8394,-5.8315,-5.8584,-5.8477,-5.8596,-5.8596,-5.8654,-5.865,-5.8996,-5.8693,-5.8692,-5.8691,-5.8691,0,-5.7627,-5.7765,-5.7772,-5.7866,-5.802,-5.801,-5.8163,-5.8192,-5.8248,-5.8349,-5.8312,-5.8409,-5.8409,-5.8508,-5.8513,-5.8669,-5.8694,-5.8706,-5.8706,-5.8709,-5.8708,-5.8746,-5.873,-5.87,-5.8698,-5.8697,-5.8695,0,-5.7876,-5.7886,-5.805,-5.8109,-5.8127,-5.8237,-5.8288,-5.838,-5.8397,-5.8526,-5.8556,-5.8584,-5.8699,-5.8711,-5.8846,-5.885,-5.9038,-5.902,-5.9013,-5.901,-5.9129,-5.9117,-5.9511,-5.9562,-5.9226,-5.9229,-5.9231,0,-5.8043,-5.8147,-5.8217,-5.828,-5.832,-5.8423,-5.8487,-5.8483,-5.8551,-5.8639,-5.8721,-5.8832,-5.892,-5.9108,-5.9142,-5.9245,-5.923,-5.9361,-5.9246,-5.9246,-5.9232,-5.9226,-5.9237,-5.9383,-5.9387,-5.939,-5.9392,0,-5.834,-5.834,-5.8431,-5.8526,-5.8602,-5.8677,-5.8748,-5.8803,-5.8808,-5.8887,-5.9003,-5.9072,-5.9209,-5.9321,-5.9424,-5.9463,-5.943,-5.9429,-5.9462,-5.9466,-5.9457,-5.9463,-5.9074,-5.9419,-5.9417,-5.9415,-5.9413,-5.9412,-5.8553,-5.8643,-5.8706,-5.881,-5.8862,-5.8929,-5.9017,-5.9045,-5.9141,-5.925,-5.9243,-5.9372,-5.9442,-5.9575,-5.9623,-5.9726,-5.9682,-5.973,-5.9742,-5.9754,-5.9766,-5.9442,-5.9745,-5.9744,-5.9743,-5.9743,-5.9742,0,-5.8847,-5.8884,-5.898,-5.9078,-5.9161,-5.9121,-5.9197,-5.927,-5.9382,-5.9449,-5.9536,-5.9671,-5.978,-5.9823,-5.993,-6.0004,-5.9992,-6.0033,-6.0027,-6.0037,-5.9799,-5.9759,-6.0041,-6.0041,-6.0041,-6.0041,-6.0041,-6.0041,-5.9009,-5.916,-5.9168,-5.9345,-5.9383,-5.9507,-5.9554,-5.9617,-5.9669,-5.982,-5.991,-5.9936,-5.9994,-6.0106,-6.0205,-6.0215,-6.0256,-6.0304,-6.0308,-6.0084,-6.0054,-6.0025,-5.9987,-6.0313,-6.0313,-6.0537,-6.0539,-6.0541]},{"header":{"parameterUnit":"m.s-1","parameterCategory":1,"la1":30.2991,"la2":30.254,"lo1":-89.0895,"lo2":-89.0444,"dy":0.0017,"dx":0.0017,"nx":28,"ny":28,"refTime":"2023-10-23T09:00:00:Z","depth":0,"parameterNumber":3,"parameterNumberName":"V-component_of_WINDS"},"data":[0,0,0,0,0,0,0,0,0,0,0,0,0,0,0,0,0,0,0,0,0,0,0,0,0,0,0,0,0,0,0,0,0,0,0,0,0,0,0,0,0,0,0,0,0,0,0,0,0,0,0,0,0,0,0,0,0,0,0.1573,0.1571,0,0.1436,0.1434,0.1433,0.132,0.1319,0.1317,0.1316,0.1181,0.1178,0.1176,0,0,0,0,0,0,0,0,0,0,0,0,0,0.1744,0.1741,0.1573,0.1571,0.157,0.1436,0.1434,0.1432,0.132,0.1319,0.1317,0.1316,0.1182,0.1179,0.1176,0,0,0,0,0,0,0,0,0,0,0,0,0,0.1645,0.174,0.1573,0.1497,0.1489,0.1436,0.1434,0.1432,0.132,0.1319,0.1317,0.1315,0.1183,0.1179,0.1175,0.1188,0,0,0.1164,0.1162,0,0,0,0,0,0,0,0,0.165,0.1638,0.151,0.1503,0.1493,0.1393,0.1444,0.135,0.1321,0.1385,0.1316,0.1314,0.1253,0.1243,0.1222,0.1182,0.1176,0.1163,0.1161,0.116,0.1158,0,0,0,0,0,0,0,0.1657,0.1644,0.1519,0.1509,0.1498,0.1472,0.1456,0.1426,0.1331,0.1379,0.137,0.1355,0.1248,0.1226,0.1218,0.1174,0.1164,0.116,0.1158,0.1156,0.1139,0.1141,0,0,0,0,0,0,0.1675,0.165,0.1523,0.1515,0.1569,0.147,0.1452,0.1427,0.1331,0.1314,0.1357,0.1351,0.1233,0.1222,0.1213,0.1222,0.116,0.1156,0.1154,0.1137,0.1139,0.1141,0,0,0,0,0,0,0.1679,0.1665,0.1529,0.158,0.1561,0.1469,0.1442,0.1425,0.1402,0.1314,0.1297,0.1351,0.1231,0.1218,0.1195,0.1216,0.1154,0.1151,0.1135,0.1138,0.114,0.1242,0,0,0,0,0,0,0.1685,0.1667,0.167,0.1581,0.1558,0.1512,0.1443,0.1424,0.1396,0.1386,0.1304,0.1289,0.1229,0.1201,0.1191,0.121,0.1148,0.1133,0.1136,0.114,0.1236,0.1247,0.1257,0,0,0,0,0,0.1691,0.1704,0.167,0.1656,0.1559,0.1513,0.1501,0.143,0.1398,0.1401,0.1344,0.1292,0.1215,0.12,0.1188,0.1205,0.1131,0.1135,0.1139,0.1231,0.1245,0.1257,0,0,0,0,0,0,0.18,0.1691,0.1652,0.1637,0.1585,0.1494,0.1496,0.1446,0.1404,0.1397,0.1312,0.1294,0.1281,0.1241,0.1225,0.1214,0.1166,0.1168,0.1241,0.1253,0.1263,0.1274,0.1145,0,0,0,0,0,0.1821,0.1791,0.1699,0.1695,0.167,0.1588,0.1565,0.1515,0.1458,0.1436,0.1378,0.1327,0.1291,0.127,0.1232,0.1229,0.1211,0.1236,0.1246,0.1255,0.1259,0.1256,0.1266,0.1155,0.1154,0.1154,0,0,0.1867,0.1804,0.1791,0.1715,0.1669,0.1642,0.157,0.1544,0.1524,0.1433,0.1407,0.1363,0.1301,0.1288,0.128,0.1254,0.1285,0.1261,0.1269,0.1266,0.1261,0.1272,0.1282,0.1157,0.1157,0.1156,0,0,0.1936,0.1885,0.1876,0.1831,0.1761,0.1706,0.1705,0.1621,0.1588,0.1561,0.1493,0.1468,0.1408,0.1366,0.1338,0.1392,0.1343,0.1382,0.1438,0.1437,0.1446,0.1453,0.1474,0.1483,0.1385,0.1386,0.1386,0,0.2002,0.1956,0.1878,0.1856,0.1825,0.174,0.1732,0.1693,0.1616,0.1598,0.1569,0.1493,0.1445,0.1422,0.1436,0.1415,0.1412,0.1392,0.145,0.1457,0.1463,0.1482,0.149,0.1391,0.139,0.139,0.1389,0,0.2041,0.2011,0.2012,0.1939,0.1908,0.1893,0.1815,0.1794,0.1746,0.1695,0.167,0.1609,0.1558,0.1549,0.1503,0.1521,0.1507,0.1466,0.1417,0.148,0.1497,0.1504,0.1399,0.1397,0.1395,0.1394,0,0,0.2175,0.2058,0.206,0.2026,0.1944,0.192,0.1902,0.1851,0.1835,0.1785,0.1769,0.1721,0.1682,0.165,0.1598,0.1597,0.1646,0.1556,0.1553,0.1576,0.1665,0.1698,0.1707,0.1613,0.1614,0.1614,0.1671,0,0.2232,0.2193,0.2123,0.2108,0.208,0.1999,0.1984,0.1933,0.1885,0.1856,0.1803,0.1771,0.1721,0.1701,0.1696,0.1642,0.1663,0.1636,0.16,0.1599,0.1619,0.1715,0.175,0.1806,0.1676,0.1677,0.1678,0,0.2293,0.2247,0.2229,0.2149,0.2135,0.2122,0.207,0.2043,0.1984,0.1949,0.1913,0.1857,0.1836,0.179,0.1762,0.1745,0.1726,0.1697,0.1697,0.1692,0.1644,0.1715,0.1821,0.1831,0.1687,0.1687,0.1686,0,0.2395,0.2328,0.2309,0.2282,0.2188,0.2182,0.2143,0.2082,0.2056,0.2011,0.1994,0.1948,0.1923,0.189,0.1824,0.1796,0.1803,0.1752,0.1776,0.1778,0.1782,0.1783,0.1889,0.1767,0.1767,0.1767,0.1767,0,0.2467,0.246,0.2353,0.2342,0.2332,0.2251,0.2244,0.2198,0.2145,0.2124,0.2052,0.2035,0.1947,0.192,0.1868,0.1853,0.1842,0.1816,0.1802,0.1823,0.1827,0.181,0.1805,0.1769,0.1769,0.1768,0.1768,0,0.258,0.2508,0.2482,0.2395,0.2373,0.237,0.2296,0.2283,0.223,0.2206,0.2195,0.2114,0.2079,0.2008,0.1954,0.1919,0.1917,0.1892,0.1937,0.1929,0.1958,0.1957,0.2058,0.2068,0.1939,0.1941,0.1942,0,0.2631,0.2623,0.2535,0.2516,0.2479,0.2448,0.2421,0.2342,0.2318,0.2251,0.2247,0.2205,0.2168,0.2116,0.2054,0.2012,0.1987,0.2025,0.198,0.2002,0.199,0.1992,0.1991,0.2036,0.2038,0.2039,0.204,0,0.2731,0.2696,0.2658,0.261,0.2579,0.2537,0.2491,0.248,0.2391,0.2367,0.233,0.2301,0.2245,0.2206,0.2156,0.2117,0.2066,0.2055,0.2058,0.208,0.2107,0.2095,0.1966,0.2053,0.2052,0.2051,0.205,0.205,0.2815,0.2805,0.2742,0.2704,0.2661,0.262,0.2603,0.2549,0.2515,0.2463,0.2419,0.2386,0.2328,0.2255,0.222,0.2194,0.2169,0.2174,0.2175,0.2178,0.2188,0.211,0.2185,0.2184,0.2184,0.2183,0.2183,0,0.2913,0.2868,0.2833,0.2771,0.2742,0.2693,0.264,0.2619,0.259,0.254,0.2505,0.2463,0.2425,0.236,0.2316,0.2309,0.2284,0.23,0.2301,0.2294,0.2212,0.2214,0.2321,0.2321,0.2321,0.2321,0.2321,0.2321,0.296,0.2941,0.2899,0.2858,0.2813,0.2779,0.2754,0.2716,0.2676,0.2632,0.2599,0.2556,0.2501,0.2453,0.2417,0.2398,0.2387,0.2412,0.2386,0.2312,0.2299,0.2287,0.2288,0.2409,0.2409,0.247,0.247,0.2471]}]]